Hourly Data Report for July 25, 2021

RANKIN INLET A
NUNAVUT
Current Station Operator: NAVCAN

62°48'38.000" N
92°06'53.000" W
32.30 m
2303405
71083
YRT

Download Data

Hourly Data (July 2021)
Hourly Data Report for July 25, 2021
TIME
LST
Temp Definition
°C
Dew Point Definition
°C
Rel Hum Definition
%
Precip. Amount Definition
mm

Wind Dir Definition
10's deg

Wind Spd Definition
km/h
Visibility Definition
km
Stn Press Definition
kPa
Hmdx Definition


Wind Chill Definition


Weather Definition


00:00 6.0 5.0 93   31 58 6.4 97.73     Rain, Fog
01:00 5.9 5.0 93   32 58 6.4 97.75     Rain, Fog
02:00 6.2 5.3 94   32 58 6.4 97.81     Rain, Fog
03:00 6.3 5.4 93   32 51 4.8 97.89     Rain, Fog
04:00 6.8 5.4 90   33 58 8.1 97.92     Rain, Fog
05:00 6.9 5.7 92   33 54 8.1 97.99     Rain, Fog
06:00 7.3 5.8 90   33 60 9.7 98.06     Rain, Fog
07:00 7.6 6.0 90   33 59 9.7 98.16     Rain, Fog
08:00 7.8 6.2 90   33 55 24.1 98.24     LegendNANA
09:00 7.9 5.7 86   33 62 24.1 98.32     Cloudy
10:00 7.8 5.5 85   33 58 24.1 98.41     LegendNANA
11:00 7.9 4.9 81   33 66 24.1 98.47     LegendNANA
12:00 7.8 4.1 78   33 64 24.1 98.58     Cloudy
13:00 7.7 4.0 77   33 59 24.1 98.69     LegendNANA
14:00 8.3 4.2 75   32 54 24.1 98.75     LegendNANA
15:00 9.5 3.8 67   32 66 24.1 98.80     Mostly Cloudy
16:00 9.6 3.6 66   32 63 24.1 98.88     LegendNANA
17:00 9.7 3.3 64   32 64 24.1 98.93     LegendNANA
18:00 9.4 3.3 66   32 61 24.1 98.99     Mostly Cloudy
19:00 9.5 3.2 65   32 58 24.1 99.02     LegendNANA
20:00 9.3 3.3 66   32 54 24.1 99.06     LegendNANA
21:00 8.6 3.7 71   32 47 24.1 99.12     Mainly Clear
22:00 7.9 3.8 75   31 34 24.1 99.20     LegendNANA
23:00 7.3 3.1 75   31 41 24.1 99.23     LegendNANA

Notes on Data Quality.

Legend

  • E = Estimated
  • M = Missing
  • NA = Not Available*
  • [empty] = Indicates an unobserved value
Date modified: